08-07-2022, 00:00:00,    326,    0.0,   13.3,   0.00,   0.00, 1027.8,   73.5, -999.0
08-07-2022, 00:00:10,    326,    0.0,   13.3,   0.00,   0.00, 1027.8,   73.6, -999.0
08-07-2022, 00:00:20,    326,    0.0,   13.3,   0.00,   0.00, 1027.8,   73.5, -999.0
08-07-2022, 00:00:30,    326,    0.0,   13.3,   0.00,   0.00, 1027.8,   73.5, -999.0
08-07-2022, 00:00:40,    326,    0.0,   13.3,   0.00,   0.00, 1027.8,   73.6, -999.0
08-07-2022, 00:00:50,    326,    0.0,   13.3,   0.00,   0.00, 1027.8,   73.6, -999.0
08-07-2022, 00:01:00,    326,    0.0,   13.2,   0.00,   0.00, 1027.8,   73.5, -999.0
08-07-2022, 00:01:10,    326,    0.0,   13.3,   0.00,   0.00, 1027.8,   73.8, -999.0
08-07-2022, 00:01:19,    326,    0.0,   13.2,   0.00,   0.00, 1027.8,   73.9, -999.0
08-07-2022, 00:01:30,    326,    0.0,   13.2,   0.00,   0.00, 1027.8,   73.9, -999.0
08-07-2022, 00:01:40,    326,    0.0,   13.2,   0.00,   0.00, 1027.8,   74.0, -999.0
08-07-2022, 00:01:49,    326,    0.0,   13.2,   0.00,   0.00, 1027.8,   74.1, -999.0
08-07-2022, 00:01:59,    326,    0.0,   13.3,   0.00,   0.00, 1027.8,   74.1, -999.0
08-07-2022, 00:02:10,    326,    0.0,   13.3,   0.00,   0.00, 1027.8,   74.2, -999.0
08-07-2022, 00:02:19,    326,    0.0,   13.2,   0.00,   0.00, 1027.8,   74.1, -999.0
08-07-2022, 00:02:29,    326,    0.0,   13.3,   0.00,   0.00, 1027.7,   74.1, -999.0
08-07-2022, 00:02:39,    326,    0.0,   13.2,   0.00,   0.00, 1027.8,   74.2, -999.0
08-07-2022, 00:02:49,    326,    0.0,   13.3,   0.00,   0.00, 1027.7,   74.5, -999.0
08-07-2022, 00:02:59,    326,    0.0,   13.3,   0.00,   0.00, 1027.8,   74.4, -999.0
08-07-2022, 00:03:09,    326,    0.0,   13.3,   0.00,   0.00, 1027.7,   74.3, -999.0
08-07-2022, 00:03:19,    326,    0.0,   13.3,   0.00,   0.00, 1027.8,   74.3, -999.0
08-07-2022, 00:03:29,    326,    0.0,   13.3,   0.00,   0.00, 1027.8,   74.3, -999.0
08-07-2022, 00:03:39,    326,    0.0,   13.3,   0.00,   0.00, 1027.8,   74.3, -999.0
08-07-2022, 00:03:49,    326,    0.0,   13.3,   0.00,   0.00, 1027.7,   74.4, -999.0
08-07-2022, 00:03:59,    326,    0.0,   13.3,   0.00,   0.00, 1027.7,   74.3, -999.0
08-07-2022, 00:04:09,    326,    0.0,   13.3,   0.00,   0.00, 1027.7,   74.3, -999.0
08-07-2022, 00:04:19,    326,    0.0,   13.3,   0.00,   0.00, 1027.7,   74.4, -999.0
08-07-2022, 00:04:28,    326,    0.0,   13.3,   0.00,   0.00, 1027.7,   74.2, -999.0
08-07-2022, 00:04:39,    326,    0.0,   13.4,   0.00,   0.00, 1027.7,   74.2, -999.0
08-07-2022, 00:04:49,    326,    0.0,   13.3,   0.00,   0.00, 1027.7,   74.2, -999.0
08-07-2022, 00:04:58,    326,    0.0,   13.2,   0.00,   0.00, 1027.7,   74.3, -999.0
08-07-2022, 00:05:08,    326,    0.0,   13.3,   0.00,   0.00, 1027.7,   74.2, -999.0
08-07-2022, 00:05:18,    326,    0.0,   13.2,   0.00,   0.00, 1027.8,   74.3, -999.0
08-07-2022, 00:05:28,    326,    0.0,   13.3,   0.00,   0.00, 1027.7,   74.3, -999.0
08-07-2022, 00:05:38,    326,    0.0,   13.3,   0.00,   0.00, 1027.7,   74.3, -999.0
08-07-2022, 00:05:48,    326,    0.0,   13.2,   0.00,   0.00, 1027.7,   74.2, -999.0
08-07-2022, 00:05:58,    326,    0.0,   13.2,   0.00,   0.00, 1027.7,   74.4, -999.0
08-07-2022, 00:06:08,    326,    0.0,   13.2,   0.00,   0.00, 1027.7,   74.4, -999.0
08-07-2022, 00:06:18,    326,    0.0,   13.2,   0.00,   0.00, 1027.7,   74.4, -999.0
08-07-2022, 00:06:28,    326,    0.0,   13.2,   0.00,   0.00, 1027.7,   74.6, -999.0
08-07-2022, 00:06:38,    326,    0.0,   13.1,   0.00,   0.00, 1027.7,   74.6, -999.0
08-07-2022, 00:06:48,    326,    0.0,   13.1,   0.00,   0.00, 1027.7,   74.5, -999.0
08-07-2022, 00:06:58,    326,    0.0,   13.1,   0.00,   0.00, 1027.7,   74.4, -999.0
08-07-2022, 00:07:08,    325,    0.0,   13.1,   0.00,   0.00, 1027.7,   74.6, -999.0
08-07-2022, 00:07:18,    326,    0.0,   13.1,   0.00,   0.00, 1027.7,   74.6, -999.0
08-07-2022, 00:07:28,    326,    0.0,   13.1,   0.00,   0.00, 1027.7,   74.7, -999.0
08-07-2022, 00:07:37,    326,    0.0,   13.1,   0.00,   0.00, 1027.7,   74.7, -999.0
08-07-2022, 00:07:48,    326,    0.0,   13.1,   0.00,   0.00, 1027.7,   74.7, -999.0
08-07-2022, 00:07:57,    326,    0.0,   13.1,   0.00,   0.00, 1027.7,   74.9, -999.0
08-07-2022, 00:08:07,    326,    0.0,   13.0,   0.00,   0.00, 1027.7,   74.9, -999.0
08-07-2022, 00:08:18,    326,    0.0,   13.1,   0.00,   0.00, 1027.7,   74.8, -999.0
08-07-2022, 00:08:27,    326,    0.0,   13.1,   0.00,   0.00, 1027.7,   74.9, -999.0
08-07-2022, 00:08:37,    326,    0.0,   13.1,   0.00,   0.00, 1027.7,   74.9, -999.0
08-07-2022, 00:08:47,    326,    0.0,   13.1,   0.00,   0.00, 1027.6,   74.8, -999.0
08-07-2022, 00:08:57,    325,    0.0,   13.1,   0.00,   0.00, 1027.7,   75.0, -999.0
08-07-2022, 00:09:07,    325,    0.0,   13.0,   0.00,   0.00, 1027.7,   74.9, -999.0
08-07-2022, 00:09:17,    326,    0.0,   13.0,   0.00,   0.00, 1027.6,   75.1, -999.0
08-07-2022, 00:09:27,    326,    0.0,   13.1,   0.00,   0.00, 1027.7,   75.2, -999.0
08-07-2022, 00:09:37,    325,    0.0,   13.1,   0.00,   0.00, 1027.6,   75.3, -999.0
08-07-2022, 00:09:47,    326,    0.0,   13.1,   0.00,   0.00, 1027.6,   75.1, -999.0
08-07-2022, 00:09:57,    326,    0.0,   13.1,   0.00,   0.00, 1027.6,   75.2, -999.0
08-07-2022, 00:10:07,    325,    0.0,   13.0,   0.00,   0.00, 1027.6,   75.2, -999.0
08-07-2022, 00:10:17,    326,    0.0,   13.1,   0.00,   0.00, 1027.6,   75.3, -999.0
08-07-2022, 00:10:27,    326,    0.0,   13.1,   0.00,   0.00, 1027.6,   75.2, -999.0
08-07-2022, 00:10:36,    326,    0.0,   13.0,   0.00,   0.00, 1027.6,   75.3, -999.0
08-07-2022, 00:10:47,    326,    0.0,   13.1,   0.00,   0.00, 1027.6,   75.2, -999.0
08-07-2022, 00:10:57,    326,    0.0,   13.1,   0.00,   0.00, 1027.6,   75.2, -999.0
08-07-2022, 00:11:06,    326,    0.0,   13.1,   0.00,   0.00, 1027.6,   75.3, -999.0
08-07-2022, 00:11:16,    326,    0.0,   13.1,   0.00,   0.00, 1027.6,   75.4, -999.0
08-07-2022, 00:11:27,    326,    0.0,   12.9,   0.00,   0.00, 1027.6,   75.5, -999.0
08-07-2022, 00:11:36,    326,    0.0,   13.1,   0.00,   0.00, 1027.6,   75.5, -999.0
08-07-2022, 00:11:46,    326,    0.0,   13.1,   0.00,   0.00, 1027.6,   75.3, -999.0
08-07-2022, 00:11:56,    326,    0.0,   13.1,   0.00,   0.00, 1027.6,   75.5, -999.0
08-07-2022, 00:12:06,    326,    0.0,   13.2,   0.00,   0.00, 1027.6,   75.4, -999.0
08-07-2022, 00:12:16,    327,    0.0,   13.1,   0.00,   0.00, 1027.6,   75.5, -999.0
08-07-2022, 00:12:26,    326,    0.0,   13.1,   0.00,   0.00, 1027.6,   75.5, -999.0
08-07-2022, 00:12:36,    326,    0.0,   13.1,   0.00,   0.00, 1027.6,   75.4, -999.0
08-07-2022, 00:12:46,    326,    0.0,   13.1,   0.00,   0.00, 1027.6,   75.4, -999.0
08-07-2022, 00:12:56,    326,    0.0,   13.1,   0.00,   0.00, 1027.6,   75.4, -999.0
08-07-2022, 00:13:06,    326,    0.0,   13.1,   0.00,   0.00, 1027.6,   75.4, -999.0
08-07-2022, 00:13:16,     29,    0.0,   13.0,   0.00,   0.00, 1027.6,   75.4, -999.0
08-07-2022, 00:13:26,    331,    0.0,   13.0,   0.00,   0.00, 1027.6,   75.5, -999.0
08-07-2022, 00:13:36,    331,    0.0,   13.0,   0.00,   0.00, 1027.7,   75.7, -999.0
08-07-2022, 00:13:45,    331,    0.0,   13.1,   0.00,   0.00, 1027.7,   75.8, -999.0
08-07-2022, 00:13:56,    331,    0.0,   13.2,   0.00,   0.00, 1027.6,   75.9, -999.0
08-07-2022, 00:14:06,    331,    0.0,   13.2,   0.00,   0.00, 1027.7,   75.9, -999.0
08-07-2022, 00:14:15,    331,    0.0,   13.2,   0.00,   0.00, 1027.7,   75.8, -999.0
08-07-2022, 00:14:25,    331,    0.0,   13.2,   0.00,   0.00, 1027.6,   75.6, -999.0
08-07-2022, 00:14:35,    331,    0.0,   13.2,   0.00,   0.00, 1027.7,   75.6, -999.0
08-07-2022, 00:14:45,    331,    0.0,   13.2,   0.00,   0.00, 1027.7,   75.5, -999.0
08-07-2022, 00:14:55,    331,    0.0,   13.2,   0.00,   0.00, 1027.7,   75.5, -999.0
08-07-2022, 00:15:05,    331,    0.0,   13.2,   0.00,   0.00, 1027.7,   75.5, -999.0
08-07-2022, 00:15:15,    331,    0.0,   13.1,   0.00,   0.00, 1027.7,   75.5, -999.0
08-07-2022, 00:15:25,    331,    0.0,   13.2,   0.00,   0.00, 1027.7,   75.6, -999.0
08-07-2022, 00:15:35,    331,    0.0,   13.1,   0.00,   0.00, 1027.7,   75.6, -999.0
08-07-2022, 00:15:45,    331,    0.0,   13.1,   0.00,   0.00, 1027.7,   75.6, -999.0
08-07-2022, 00:15:55,    331,    0.0,   13.1,   0.00,   0.00, 1027.7,   75.5, -999.0
08-07-2022, 00:16:05,    331,    0.0,   13.1,   0.00,   0.00, 1027.7,   75.6, -999.0
08-07-2022, 00:16:15,    331,    0.0,   13.1,   0.00,   0.00, 1027.7,   75.6, -999.0
08-07-2022, 00:16:25,    331,    0.0,   13.1,   0.00,   0.00, 1027.7,   75.5, -999.0
08-07-2022, 00:16:35,    331,    0.0,   13.1,   0.00,   0.00, 1027.7,   75.7, -999.0
08-07-2022, 00:16:44,    331,    0.0,   13.1,   0.00,   0.00, 1027.7,   75.6, -999.0
08-07-2022, 00:16:54,    331,    0.0,   13.1,   0.00,   0.00, 1027.7,   75.6, -999.0
08-07-2022, 00:17:05,    331,    0.0,   13.1,   0.00,   0.00, 1027.7,   75.7, -999.0
08-07-2022, 00:17:14,    331,    0.0,   13.1,   0.00,   0.00, 1027.7,   75.7, -999.0
08-07-2022, 00:17:24,    331,    0.0,   13.1,   0.00,   0.00, 1027.7,   75.9, -999.0
08-07-2022, 00:17:35,    330,    0.0,   13.1,   0.00,   0.00, 1027.7,   76.0, -999.0
08-07-2022, 00:17:44,    331,    0.0,   13.1,   0.00,   0.00, 1027.7,   76.0, -999.0
08-07-2022, 00:17:54,    330,    0.0,   13.1,   0.00,   0.00, 1027.7,   75.8, -999.0
08-07-2022, 00:18:04,    331,    0.0,   13.0,   0.00,   0.00, 1027.7,   75.8, -999.0
08-07-2022, 00:18:14,    331,    0.0,   13.1,   0.00,   0.00, 1027.7,   75.9, -999.0
08-07-2022, 00:18:24,    331,    0.0,   13.2,   0.00,   0.00, 1027.7,   76.0, -999.0
08-07-2022, 00:18:34,    331,    0.0,   13.2,   0.00,   0.00, 1027.7,   76.0, -999.0
08-07-2022, 00:18:44,    330,    0.0,   13.2,   0.00,   0.00, 1027.7,   76.1, -999.0
08-07-2022, 00:18:54,    331,    0.0,   13.1,   0.00,   0.00, 1027.7,   76.0, -999.0
08-07-2022, 00:19:04,    330,    0.0,   13.1,   0.00,   0.00, 1027.7,   75.9, -999.0
08-07-2022, 00:19:14,    330,    0.0,   13.2,   0.00,   0.00, 1027.7,   75.9, -999.0
08-07-2022, 00:19:23,    331,    0.0,   13.1,   0.00,   0.00, 1027.7,   75.9, -999.0
08-07-2022, 00:19:34,    331,    0.0,   13.2,   0.00,   0.00, 1027.7,   76.0, -999.0
08-07-2022, 00:19:44,    331,    0.0,   13.2,   0.00,   0.00, 1027.7,   76.0, -999.0
08-07-2022, 00:19:53,    330,    0.0,   13.2,   0.00,   0.00, 1027.7,   75.9, -999.0
08-07-2022, 00:20:04,    330,    0.0,   13.1,   0.00,   0.00, 1027.7,   75.9, -999.0
08-07-2022, 00:20:14,    331,    0.0,   13.1,   0.00,   0.00, 1027.7,   75.9, -999.0
08-07-2022, 00:20:23,    330,    0.0,   13.1,   0.00,   0.00, 1027.7,   76.0, -999.0
08-07-2022, 00:20:33,    331,    0.0,   13.2,   0.00,   0.00, 1027.7,   76.0, -999.0
08-07-2022, 00:20:43,    331,    0.0,   13.1,   0.00,   0.00, 1027.7,   75.9, -999.0
08-07-2022, 00:20:53,    330,    0.0,   13.1,   0.00,   0.00, 1027.7,   76.0, -999.0
08-07-2022, 00:21:03,    330,    0.0,   13.1,   0.00,   0.00, 1027.7,   76.0, -999.0
08-07-2022, 00:21:13,    331,    0.0,   13.1,   0.00,   0.00, 1027.7,   76.0, -999.0
08-07-2022, 00:21:23,    331,    0.0,   13.1,   0.00,   0.00, 1027.7,   76.1, -999.0
08-07-2022, 00:21:33,    330,    0.0,   13.1,   0.00,   0.00, 1027.7,   76.0, -999.0
08-07-2022, 00:21:43,    331,    0.0,   13.1,   0.00,   0.00, 1027.7,   76.1, -999.0
08-07-2022, 00:21:53,    331,    0.0,   13.1,   0.00,   0.00, 1027.7,   76.2, -999.0
08-07-2022, 00:22:03,    331,    0.0,   13.1,   0.00,   0.00, 1027.7,   76.1, -999.0
08-07-2022, 00:22:13,    331,    0.0,   13.0,   0.00,   0.00, 1027.7,   76.2, -999.0
08-07-2022, 00:22:23,    331,    0.0,   13.1,   0.00,   0.00, 1027.7,   76.3, -999.0
08-07-2022, 00:22:33,    331,    0.0,   13.1,   0.00,   0.00, 1027.7,   76.3, -999.0
08-07-2022, 00:22:43,    330,    0.0,   13.1,   0.00,   0.00, 1027.7,   76.2, -999.0
08-07-2022, 00:22:53,    331,    0.0,   13.2,   0.00,   0.00, 1027.8,   76.3, -999.0
08-07-2022, 00:23:02,    331,    0.0,   13.2,   0.00,   0.00, 1027.7,   76.2, -999.0
08-07-2022, 00:23:13,    331,    0.0,   13.1,   0.00,   0.00, 1027.7,   76.2, -999.0
08-07-2022, 00:23:23,    331,    0.0,   13.2,   0.00,   0.00, 1027.7,   76.2, -999.0
08-07-2022, 00:23:32,    330,    0.0,   13.1,   0.00,   0.00, 1027.7,   76.1, -999.0
08-07-2022, 00:23:42,    330,    0.0,   13.1,   0.00,   0.00, 1027.8,   76.2, -999.0
08-07-2022, 00:23:52,    331,    0.0,   13.1,   0.00,   0.00, 1027.7,   76.1, -999.0
08-07-2022, 00:24:02,    330,    0.0,   13.1,   0.00,   0.00, 1027.7,   76.2, -999.0
08-07-2022, 00:24:12,    331,    0.0,   13.1,   0.00,   0.00, 1027.7,   76.3, -999.0
08-07-2022, 00:24:22,    331,    0.0,   13.1,   0.00,   0.00, 1027.7,   76.2, -999.0
08-07-2022, 00:24:32,    330,    0.0,   13.2,   0.00,   0.00, 1027.7,   76.2, -999.0
08-07-2022, 00:24:42,    330,    0.0,   13.1,   0.00,   0.00, 1027.7,   76.1, -999.0
08-07-2022, 00:24:52,    331,    0.0,   13.1,   0.00,   0.00, 1027.7,   76.1, -999.0
08-07-2022, 00:25:02,    331,    0.0,   13.0,   0.00,   0.00, 1027.7,   76.1, -999.0
08-07-2022, 00:25:12,    331,    0.0,   13.1,   0.00,   0.00, 1027.7,   76.2, -999.0
08-07-2022, 00:25:22,    330,    0.0,   13.1,   0.00,   0.00, 1027.7,   76.2, -999.0
08-07-2022, 00:25:32,    331,    0.0,   13.1,   0.00,   0.00, 1027.6,   76.2, -999.0
08-07-2022, 00:25:42,    330,    0.0,   13.1,   0.00,   0.00, 1027.7,   76.2, -999.0
08-07-2022, 00:25:52,    330,    0.0,   13.1,   0.00,   0.00, 1027.7,   76.2, -999.0
08-07-2022, 00:26:02,    330,    0.0,   13.1,   0.00,   0.00, 1027.7,   76.1, -999.0
08-07-2022, 00:26:11,    331,    0.0,   13.0,   0.00,   0.00, 1027.7,   76.2, -999.0
08-07-2022, 00:26:22,    331,    0.0,   13.1,   0.00,   0.00, 1027.6,   76.2, -999.0
08-07-2022, 00:26:31,    331,    0.0,   13.1,   0.00,   0.00, 1027.7,   76.3, -999.0
08-07-2022, 00:26:41,    330,    0.0,   13.1,   0.00,   0.00, 1027.7,   76.4, -999.0
08-07-2022, 00:26:51,    331,    0.0,   13.1,   0.00,   0.00, 1027.6,   76.5, -999.0
08-07-2022, 00:27:01,    331,    0.0,   13.0,   0.00,   0.00, 1027.6,   76.4, -999.0
08-07-2022, 00:27:11,    330,    0.0,   13.0,   0.00,   0.00, 1027.6,   76.4, -999.0
08-07-2022, 00:27:21,    331,    0.0,   13.0,   0.00,   0.00, 1027.7,   76.4, -999.0
08-07-2022, 00:27:31,    331,    0.0,   13.0,   0.00,   0.00, 1027.6,   76.4, -999.0
08-07-2022, 00:27:41,    331,    0.0,   13.0,   0.00,   0.00, 1027.7,   76.5, -999.0
08-07-2022, 00:27:51,    331,    0.0,   13.0,   0.00,   0.00, 1027.7,   76.5, -999.0
08-07-2022, 00:28:01,    331,    0.0,   13.1,   0.00,   0.00, 1027.6,   76.5, -999.0
08-07-2022, 00:28:11,    330,    0.0,   13.1,   0.00,   0.00, 1027.6,   76.6, -999.0
08-07-2022, 00:28:21,    331,    0.0,   13.0,   0.00,   0.00, 1027.6,   76.6, -999.0
08-07-2022, 00:28:31,    331,    0.0,   13.1,   0.00,   0.00, 1027.6,   76.5, -999.0
08-07-2022, 00:28:41,    330,    0.0,   13.0,   0.00,   0.00, 1027.6,   76.6, -999.0
08-07-2022, 00:28:51,    330,    0.0,   13.0,   0.00,   0.00, 1027.6,   76.6, -999.0
08-07-2022, 00:29:01,    331,    0.0,   13.0,   0.00,   0.00, 1027.6,   76.7, -999.0
08-07-2022, 00:29:10,    330,    0.0,   13.0,   0.00,   0.00, 1027.6,   76.5, -999.0
08-07-2022, 00:29:20,    331,    0.0,   13.1,   0.00,   0.00, 1027.6,   76.7, -999.0
08-07-2022, 00:29:31,    330,    0.0,   13.0,   0.00,   0.00, 1027.6,   76.7, -999.0
08-07-2022, 00:29:40,    331,    0.0,   13.0,   0.00,   0.00, 1027.6,   76.8, -999.0
08-07-2022, 00:29:50,    331,    0.0,   13.1,   0.00,   0.00, 1027.7,   76.7, -999.0
08-07-2022, 00:30:01,    331,    0.0,   13.1,   0.00,   0.00, 1027.6,   76.6, -999.0
08-07-2022, 00:30:10,    331,    0.0,   13.0,   0.00,   0.00, 1027.7,   76.6, -999.0
08-07-2022, 00:30:20,    331,    0.0,   13.1,   0.00,   0.00, 1027.6,   76.6, -999.0
08-07-2022, 00:30:30,    330,    0.0,   13.1,   0.00,   0.00, 1027.6,   76.6, -999.0
08-07-2022, 00:30:40,    331,    0.0,   13.1,   0.00,   0.00, 1027.6,   76.8, -999.0
08-07-2022, 00:30:50,    330,    0.0,   13.0,   0.00,   0.00, 1027.7,   76.8, -999.0
08-07-2022, 00:31:00,    331,    0.0,   13.0,   0.00,   0.00, 1027.6,   76.8, -999.0
08-07-2022, 00:31:10,    330,    0.0,   13.1,   0.00,   0.00, 1027.6,   76.7, -999.0
08-07-2022, 00:31:20,    331,    0.0,   13.1,   0.00,   0.00, 1027.6,   76.8, -999.0
08-07-2022, 00:31:30,    331,    0.0,   13.0,   0.00,   0.00, 1027.6,   76.9, -999.0
08-07-2022, 00:31:40,    330,    0.0,   13.1,   0.00,   0.00, 1027.6,   76.8, -999.0
08-07-2022, 00:31:50,    330,    0.0,   13.1,   0.00,   0.00, 1027.6,   76.8, -999.0
08-07-2022, 00:32:00,    331,    0.0,   13.0,   0.00,   0.00, 1027.6,   76.7, -999.0
08-07-2022, 00:32:10,    331,    0.0,   13.0,   0.00,   0.00, 1027.6,   76.8, -999.0
08-07-2022, 00:32:19,    331,    0.0,   13.0,   0.00,   0.00, 1027.6,   76.9, -999.0
08-07-2022, 00:32:30,    330,    0.0,   13.0,   0.00,   0.00, 1027.6,   76.9, -999.0
08-07-2022, 00:32:40,    330,    0.0,   13.1,   0.00,   0.00, 1027.6,   76.8, -999.0
08-07-2022, 00:32:49,    331,    0.0,   13.0,   0.00,   0.00, 1027.6,   76.9, -999.0
08-07-2022, 00:32:59,    330,    0.0,   13.0,   0.00,   0.00, 1027.6,   77.0, -999.0
08-07-2022, 00:33:09,    330,    0.0,   13.0,   0.00,   0.00, 1027.6,   76.8, -999.0
08-07-2022, 00:33:19,    330,    0.0,   13.0,   0.00,   0.00, 1027.6,   76.9, -999.0
08-07-2022, 00:33:29,    331,    0.0,   13.0,   0.00,   0.00, 1027.6,   76.9, -999.0
08-07-2022, 00:33:39,    330,    0.0,   13.0,   0.00,   0.00, 1027.6,   77.1, -999.0
08-07-2022, 00:33:49,    330,    0.0,   13.0,   0.00,   0.00, 1027.6,   76.9, -999.0
08-07-2022, 00:33:59,    330,    0.0,   13.0,   0.00,   0.00, 1027.6,   77.1, -999.0
08-07-2022, 00:34:09,    330,    0.0,   13.0,   0.00,   0.00, 1027.6,   77.0, -999.0
08-07-2022, 00:34:19,    331,    0.0,   13.0,   0.00,   0.00, 1027.6,   77.1, -999.0
08-07-2022, 00:34:29,    331,    0.0,   13.0,   0.00,   0.00, 1027.6,   77.1, -999.0
08-07-2022, 00:34:39,    331,    0.0,   13.0,   0.00,   0.00, 1027.6,   77.1, -999.0
08-07-2022, 00:34:49,    330,    0.0,   13.0,   0.00,   0.00, 1027.6,   77.1, -999.0
08-07-2022, 00:34:59,    332,    0.0,   13.0,   0.00,   0.00, 1027.6,   77.1, -999.0
08-07-2022, 00:35:09,    331,    0.0,   13.0,   0.00,   0.00, 1027.6,   77.0, -999.0
08-07-2022, 00:35:19,    330,    0.0,   12.9,   0.00,   0.00, 1027.6,   77.0, -999.0
08-07-2022, 00:35:28,    330,    0.0,   12.9,   0.00,   0.00, 1027.6,   76.9, -999.0
08-07-2022, 00:35:39,    330,    0.0,   13.0,   0.00,   0.00, 1027.6,   77.0, -999.0
08-07-2022, 00:35:48,    331,    0.0,   12.9,   0.00,   0.00, 1027.5,   77.1, -999.0
08-07-2022, 00:35:58,    330,    0.0,   12.9,   0.00,   0.00, 1027.6,   77.0, -999.0
08-07-2022, 00:36:08,    330,    0.0,   13.0,   0.00,   0.00, 1027.6,   77.1, -999.0
08-07-2022, 00:36:18,    330,    0.0,   13.0,   0.00,   0.00, 1027.6,   77.2, -999.0
08-07-2022, 00:36:28,    331,    0.0,   12.9,   0.00,   0.00, 1027.6,   77.2, -999.0
08-07-2022, 00:36:38,    331,    0.0,   13.0,   0.00,   0.00, 1027.6,   77.2, -999.0
08-07-2022, 00:36:48,    330,    0.0,   13.0,   0.00,   0.00, 1027.6,   77.1, -999.0
08-07-2022, 00:36:58,    330,    0.0,   13.0,   0.00,   0.00, 1027.6,   77.2, -999.0
08-07-2022, 00:37:08,    330,    0.0,   13.0,   0.00,   0.00, 1027.6,   77.2, -999.0
08-07-2022, 00:37:18,    330,    0.0,   13.0,   0.00,   0.00, 1027.6,   77.2, -999.0
08-07-2022, 00:37:28,    330,    0.0,   13.0,   0.00,   0.00, 1027.6,   77.3, -999.0
08-07-2022, 00:37:38,    330,    0.0,   13.0,   0.00,   0.00, 1027.6,   77.3, -999.0
08-07-2022, 00:37:48,    331,    0.0,   12.9,   0.00,   0.00, 1027.6,   77.2, -999.0
08-07-2022, 00:37:58,    330,    0.0,   12.9,   0.00,   0.00, 1027.6,   77.1, -999.0
08-07-2022, 00:38:08,    330,    0.0,   13.0,   0.00,   0.00, 1027.6,   77.2, -999.0
08-07-2022, 00:38:18,    330,    0.0,   13.0,   0.00,   0.00, 1027.6,   77.2, -999.0
08-07-2022, 00:38:27,    330,    0.0,   12.9,   0.00,   0.00, 1027.6,   77.3, -999.0
08-07-2022, 00:38:37,    330,    0.0,   13.0,   0.00,   0.00, 1027.6,   77.2, -999.0
08-07-2022, 00:38:48,    331,    0.0,   13.0,   0.00,   0.00, 1027.6,   77.3, -999.0
08-07-2022, 00:38:57,    331,    0.0,   13.0,   0.00,   0.00, 1027.6,   77.2, -999.0
08-07-2022, 00:39:07,    331,    0.0,   13.0,   0.00,   0.00, 1027.6,   77.3, -999.0
08-07-2022, 00:39:18,    330,    0.0,   13.0,   0.00,   0.00, 1027.6,   77.3, -999.0
08-07-2022, 00:39:27,    330,    0.0,   13.0,   0.00,   0.00, 1027.6,   77.3, -999.0
08-07-2022, 00:39:37,    331,    0.0,   12.9,   0.00,   0.00, 1027.6,   77.2, -999.0
08-07-2022, 00:39:47,    330,    0.0,   12.9,   0.00,   0.00, 1027.6,   77.3, -999.0
08-07-2022, 00:39:57,    331,    0.0,   12.9,   0.00,   0.00, 1027.6,   77.2, -999.0
08-07-2022, 00:40:07,    330,    0.0,   13.0,   0.00,   0.00, 1027.6,   77.2, -999.0
08-07-2022, 00:40:17,    331,    0.0,   12.9,   0.00,   0.00, 1027.6,   77.1, -999.0
08-07-2022, 00:40:27,    330,    0.0,   12.9,   0.00,   0.00, 1027.6,   77.3, -999.0
08-07-2022, 00:40:37,    331,    0.0,   12.9,   0.00,   0.00, 1027.6,   77.3, -999.0
08-07-2022, 00:40:47,    329,    0.0,   12.7,   0.00,   0.00, 1027.6,   77.3, -999.0
08-07-2022, 00:40:57,    331,    0.0,   12.9,   0.00,   0.00, 1027.6,   77.4, -999.0
08-07-2022, 00:41:06,    331,    0.0,   12.9,   0.00,   0.00, 1027.5,   77.5, -999.0
08-07-2022, 00:41:17,    330,    0.0,   12.9,   0.00,   0.00, 1027.6,   77.7, -999.0
08-07-2022, 00:41:27,    331,    0.0,   12.9,   0.00,   0.00, 1027.6,   77.7, -999.0
08-07-2022, 00:41:36,    330,    0.0,   12.9,   0.00,   0.00, 1027.6,   77.5, -999.0
08-07-2022, 00:41:47,    330,    0.0,   12.8,   0.00,   0.00, 1027.6,   77.6, -999.0
08-07-2022, 00:41:57,    330,    0.0,   12.8,   0.00,   0.00, 1027.6,   77.6, -999.0
08-07-2022, 00:42:06,    330,    0.0,   12.8,   0.00,   0.00, 1027.6,   77.6, -999.0
08-07-2022, 00:42:16,    331,    0.0,   12.8,   0.00,   0.00, 1027.6,   77.6, -999.0
08-07-2022, 00:42:26,    330,    0.0,   12.8,   0.00,   0.00, 1027.6,   77.6, -999.0
08-07-2022, 00:42:36,    330,    0.0,   12.8,   0.00,   0.00, 1027.6,   77.5, -999.0
08-07-2022, 00:42:46,    331,    0.0,   12.8,   0.00,   0.00, 1027.6,   77.6, -999.0
08-07-2022, 00:42:56,    330,    0.0,   12.7,   0.00,   0.00, 1027.5,   77.7, -999.0
08-07-2022, 00:43:06,    330,    0.0,   12.7,   0.00,   0.00, 1027.6,   77.7, -999.0
08-07-2022, 00:43:16,    330,    0.0,   12.8,   0.00,   0.00, 1027.6,   77.9, -999.0
08-07-2022, 00:43:26,    331,    0.0,   12.8,   0.00,   0.00, 1027.6,   78.0, -999.0
08-07-2022, 00:43:36,    330,    0.0,   12.9,   0.00,   0.00, 1027.6,   77.9, -999.0
08-07-2022, 00:43:46,    330,    0.0,   12.8,   0.00,   0.00, 1027.6,   78.0, -999.0
08-07-2022, 00:43:56,    331,    0.0,   12.9,   0.00,   0.00, 1027.6,   78.1, -999.0
08-07-2022, 00:44:06,    331,    0.0,   12.8,   0.00,   0.00, 1027.6,   78.2, -999.0
08-07-2022, 00:44:16,    331,    0.0,   12.8,   0.00,   0.00, 1027.6,   78.1, -999.0
08-07-2022, 00:44:26,    330,    0.0,   12.9,   0.00,   0.00, 1027.6,   77.9, -999.0
08-07-2022, 00:44:35,    331,    0.0,   12.8,   0.00,   0.00, 1027.6,   78.0, -999.0
08-07-2022, 00:44:45,    331,    0.0,   12.8,   0.00,   0.00, 1027.5,   78.0, -999.0
08-07-2022, 00:44:56,    330,    0.0,   12.8,   0.00,   0.00, 1027.6,   78.0, -999.0
08-07-2022, 00:45:05,    331,    0.0,   12.7,   0.00,   0.00, 1027.6,   77.9, -999.0
08-07-2022, 00:45:15,    330,    0.0,   12.8,   0.00,   0.00, 1027.6,   78.0, -999.0
08-07-2022, 00:45:25,    330,    0.0,   12.9,   0.00,   0.00, 1027.5,   78.0, -999.0
08-07-2022, 00:45:35,    331,    0.0,   12.8,   0.00,   0.00, 1027.6,   77.9, -999.0
08-07-2022, 00:45:45,    330,    0.0,   12.8,   0.00,   0.00, 1027.6,   78.1, -999.0
08-07-2022, 00:45:55,    331,    0.0,   12.9,   0.00,   0.00, 1027.6,   78.0, -999.0
08-07-2022, 00:46:05,    331,    0.0,   12.8,   0.00,   0.00, 1027.6,   77.9, -999.0
08-07-2022, 00:46:15,    330,    0.0,   12.9,   0.00,   0.00, 1027.6,   77.9, -999.0
08-07-2022, 00:46:25,    330,    0.0,   12.8,   0.00,   0.00, 1027.6,   77.9, -999.0
08-07-2022, 00:46:35,    330,    0.0,   12.8,   0.00,   0.00, 1027.6,   78.0, -999.0